Tracking 27126 objects as of 30-Mar-2023
HD Live streaming from Space Station
objects crossing your sky now

RESURS O1 DEB

Track RESURS O1 DEB now!
10-day predictions


NORAD ID: 48501
Int'l Code: 1994-074EC
Perigee: 442.0 km
Apogee: 449.8 km
Inclination: 97.9 °
Period: 93.4 minutes
Semi major axis: 6816 km
RCS: Unknown
Launch date: November 4, 1994
Source: Commonwealth of Independent States (former USSR) (CIS)
Launch site: TYURATAM MISSILE AND SPACE COMPLEX (TTMTR)

Note: This is SATELLITE DEBRIS
Your satellite tracking list
Your tracking list is empty




NASA's NSSDC Master Catalog

Two Line Element Set (TLE):
1 48501U 94074EC  23088.11869594  .00222625  00000-0  49988-2 0  9995
2 48501  97.8511 146.2419 0005678 246.5700 113.4949 15.42488998111651
Source of the keplerian elements: AFSPC